Time,TemperatureF,DewpointF,PressureIn,WindDirection,WindDirectionDegrees,WindSpeedMPH,WindSpeedGustMPH,Humidity,HourlyPrecipIn,Conditions,Clouds,dailyrainin,SoftwareType,DateUTC
2013-02-16 00:09:00,46.2,36.6,29.83,South,180,2.7,-999.0,69,-99.99,,,0.00,Acu-Link.com,2013-02-16 05:09:00,
2013-02-16 00:24:00,45.7,36.1,29.83,SSW,202,6.3,-999.0,69,-99.99,,,0.00,Acu-Link.com,2013-02-16 05:24:00,
2013-02-16 00:39:00,45.0,34.7,29.84,SSW,202,3.2,-999.0,67,-99.99,,,0.00,Acu-Link.com,2013-02-16 05:39:00,
2013-02-16 00:54:00,44.4,34.5,29.84,SE,135,2.7,-999.0,68,-99.99,,,0.00,Acu-Link.com,2013-02-16 05:54:00,
2013-02-16 01:10:00,44.2,34.3,29.85,South,180,4.2,-999.0,68,-99.99,,,0.00,Acu-Link.com,2013-02-16 06:10:00,
2013-02-16 01:25:00,44.1,34.6,29.84,West,270,2.7,-999.0,69,-99.99,,,0.00,Acu-Link.com,2013-02-16 06:25:00,
2013-02-16 01:40:00,43.9,34.4,29.83,SW,225,3.7,-999.0,69,-99.99,,,0.00,Acu-Link.com,2013-02-16 06:40:00,
2013-02-16 01:56:00,43.7,34.2,29.82,SW,225,4.7,-999.0,69,-99.99,,,0.00,Acu-Link.com,2013-02-16 06:56:00,
2013-02-16 02:11:00,43.5,34.0,29.83,SSW,202,2.2,-999.0,69,-99.99,,,0.00,Acu-Link.com,2013-02-16 07:11:00,
2013-02-16 02:26:00,43.5,34.0,29.83,WSW,247,4.7,-999.0,69,-99.99,,,0.00,Acu-Link.com,2013-02-16 07:26:00,
2013-02-16 02:42:00,43.5,33.7,29.83,South,180,4.7,-999.0,68,-99.99,,,0.00,Acu-Link.com,2013-02-16 07:42:00,
2013-02-16 02:57:00,43.2,33.4,29.83,South,180,4.2,-999.0,68,-99.99,,,0.00,Acu-Link.com,2013-02-16 07:57:00,
2013-02-16 03:12:00,43.2,33.0,29.82,NNE,22,3.7,-999.0,67,-99.99,,,0.00,Acu-Link.com,2013-02-16 08:12:00,
2013-02-16 03:27:00,42.8,32.6,29.82,WSW,247,2.2,-999.0,67,-99.99,,,0.00,Acu-Link.com,2013-02-16 08:27:00,
2013-02-16 03:43:00,42.6,32.4,29.82,SSW,202,2.2,-999.0,67,-99.99,,,0.00,Acu-Link.com,2013-02-16 08:43:00,
2013-02-16 03:58:00,42.6,32.4,29.82,SW,225,2.7,-999.0,67,-99.99,,,0.00,Acu-Link.com,2013-02-16 08:58:00,
2013-02-16 04:19:00,42.6,32.1,29.81,South,180,1.7,-999.0,66,-99.99,,,0.00,Acu-Link.com,2013-02-16 09:19:00,
2013-02-16 04:34:00,42.3,31.8,29.81,SSW,202,2.7,-999.0,66,-99.99,,,0.00,Acu-Link.com,2013-02-16 09:34:00,
2013-02-16 04:49:00,42.3,31.8,29.81,West,270,1.7,-999.0,66,-99.99,,,0.00,Acu-Link.com,2013-02-16 09:49:00,
2013-02-16 05:04:00,42.1,31.6,29.80,South,180,2.2,-999.0,66,-99.99,,,0.00,Acu-Link.com,2013-02-16 10:04:00,
2013-02-16 05:19:00,41.9,31.4,29.80,South,180,3.7,-999.0,66,-99.99,,,0.00,Acu-Link.com,2013-02-16 10:19:00,
2013-02-16 05:35:00,41.7,31.2,29.80,SSE,157,4.2,-999.0,66,-99.99,,,0.00,Acu-Link.com,2013-02-16 10:35:00,
2013-02-16 05:50:00,41.5,31.4,29.80,SSE,157,2.7,-999.0,67,-99.99,,,0.00,Acu-Link.com,2013-02-16 10:50:00,
2013-02-16 06:05:00,41.5,31.4,29.80,SSW,202,3.7,-999.0,67,-99.99,,,0.00,Acu-Link.com,2013-02-16 11:05:00,
2013-02-16 06:20:00,41.5,31.0,29.79,South,180,2.7,-999.0,66,-99.99,,,0.00,Acu-Link.com,2013-02-16 11:20:00,
2013-02-16 06:35:00,41.5,31.4,29.79,WSW,247,2.7,-999.0,67,-99.99,,,0.00,Acu-Link.com,2013-02-16 11:35:00,
2013-02-16 06:51:00,41.4,32.0,29.79,SW,225,2.2,-999.0,69,-99.99,,,0.00,Acu-Link.com,2013-02-16 11:51:00,
2013-02-16 07:06:00,41.0,32.3,29.80,South,180,5.8,-999.0,71,-99.99,,,0.00,Acu-Link.com,2013-02-16 12:06:00,
2013-02-16 07:21:00,40.8,33.2,29.81,South,180,4.2,-999.0,74,-99.99,,,0.00,Acu-Link.com,2013-02-16 12:21:00,
2013-02-16 07:36:00,39.9,35.2,29.81,West,270,3.7,-999.0,83,-99.99,,,0.00,Acu-Link.com,2013-02-16 12:36:00,
2013-02-16 07:52:00,38.8,35.8,29.82,SSE,157,5.8,-999.0,89,-99.99,,,0.00,Acu-Link.com,2013-02-16 12:52:00,
2013-02-16 08:07:00,38.3,36.5,29.82,WSW,247,2.7,-999.0,93,-99.99,,,0.00,Acu-Link.com,2013-02-16 13:07:00,
2013-02-16 08:22:00,38.3,37.0,29.82,West,270,3.2,-999.0,95,-99.99,,,0.00,Acu-Link.com,2013-02-16 13:22:00,
2013-02-16 08:38:00,37.8,36.2,29.81,SSE,157,2.2,-999.0,94,-99.99,,,0.01,Acu-Link.com,2013-02-16 13:38:00,
2013-02-16 08:53:00,37.2,36.2,29.82,South,180,5.8,-999.0,96,-99.99,,,0.02,Acu-Link.com,2013-02-16 13:53:00,
2013-02-16 09:08:00,36.7,35.9,29.82,SSW,202,2.7,-999.0,97,-99.99,,,0.02,Acu-Link.com,2013-02-16 14:08:00,
2013-02-16 09:24:00,35.8,35.5,29.81,NNW,337,3.7,-999.0,99,-99.99,,,0.05,Acu-Link.com,2013-02-16 14:24:00,
2013-02-16 09:39:00,35.4,35.1,29.82,SSW,202,2.7,-999.0,99,-99.99,,,0.06,Acu-Link.com,2013-02-16 14:39:00,
2013-02-16 09:54:00,34.5,34.2,29.81,SW,225,2.2,-999.0,99,-99.99,,,0.08,Acu-Link.com,2013-02-16 14:54:00,
2013-02-16 10:09:00,33.6,33.3,29.80,South,180,3.2,-999.0,99,-99.99,,,0.10,Acu-Link.com,2013-02-16 15:09:00,
2013-02-16 10:24:00,33.4,33.1,29.80,SW,225,0.0,-999.0,99,-99.99,,,0.11,Acu-Link.com,2013-02-16 15:24:00,
2013-02-16 10:40:00,33.6,33.3,29.80,SSW,202,0.0,-999.0,99,-99.99,,,0.12,Acu-Link.com,2013-02-16 15:40:00,
2013-02-16 10:55:00,33.6,33.3,29.80,NW,315,1.7,-999.0,99,-99.99,,,0.12,Acu-Link.com,2013-02-16 15:55:00,
2013-02-16 11:10:00,33.6,33.3,29.81,South,180,0.0,-999.0,99,-99.99,,,0.13,Acu-Link.com,2013-02-16 16:10:00,
2013-02-16 11:25:00,33.6,33.3,29.79,SW,225,1.1,-999.0,99,-99.99,,,0.13,Acu-Link.com,2013-02-16 16:25:00,
2013-02-16 11:41:00,33.6,33.3,29.79,SW,225,1.7,-999.0,99,-99.99,,,0.14,Acu-Link.com,2013-02-16 16:41:00,
2013-02-16 11:56:00,34.2,33.9,29.77,WNW,292,3.7,-999.0,99,-99.99,,,0.16,Acu-Link.com,2013-02-16 16:56:00,
2013-02-16 12:11:00,34.5,34.2,29.76,West,270,2.7,-999.0,99,-99.99,,,0.20,Acu-Link.com,2013-02-16 17:11:00,
2013-02-16 12:27:00,34.7,34.4,29.76,WSW,247,0.0,-999.0,99,-99.99,,,0.22,Acu-Link.com,2013-02-16 17:27:00,
2013-02-16 12:42:00,34.3,34.0,29.75,West,270,2.7,-999.0,99,-99.99,,,0.23,Acu-Link.com,2013-02-16 17:42:00,
2013-02-16 12:57:00,34.5,34.2,29.73,NNW,337,2.2,-999.0,99,-99.99,,,0.26,Acu-Link.com,2013-02-16 17:57:00,
2013-02-16 13:12:00,34.3,34.0,29.73,WSW,247,3.2,-999.0,99,-99.99,,,0.27,Acu-Link.com,2013-02-16 18:12:00,
2013-02-16 13:28:00,34.5,34.2,29.73,West,270,2.2,-999.0,99,-99.99,,,0.28,Acu-Link.com,2013-02-16 18:28:00,
2013-02-16 13:43:00,34.5,34.2,29.72,SSW,202,4.2,-999.0,99,-99.99,,,0.30,Acu-Link.com,2013-02-16 18:43:00,
2013-02-16 13:58:00,34.5,34.2,29.71,SSW,202,4.7,-999.0,99,-99.99,,,0.32,Acu-Link.com,2013-02-16 18:58:00,
2013-02-16 14:14:00,34.7,34.4,29.71,South,180,2.2,-999.0,99,-99.99,,,0.34,Acu-Link.com,2013-02-16 19:14:00,
2013-02-16 14:29:00,34.5,34.2,29.71,South,180,3.2,-999.0,99,-99.99,,,0.34,Acu-Link.com,2013-02-16 19:29:00,
2013-02-16 14:44:00,34.5,34.2,29.71,North,0,2.7,-999.0,99,-99.99,,,0.35,Acu-Link.com,2013-02-16 19:44:00,
2013-02-16 15:00:00,34.5,34.2,29.71,SSW,202,3.2,-999.0,99,-99.99,,,0.36,Acu-Link.com,2013-02-16 20:00:00,
2013-02-16 15:15:00,34.0,33.7,29.70,South,180,2.7,-999.0,99,-99.99,,,0.37,Acu-Link.com,2013-02-16 20:15:00,
2013-02-16 15:30:00,33.6,33.3,29.70,SW,225,1.7,-999.0,99,-99.99,,,0.38,Acu-Link.com,2013-02-16 20:30:00,
2013-02-16 15:46:00,33.6,33.3,29.69,WSW,247,2.7,-999.0,99,-99.99,,,0.40,Acu-Link.com,2013-02-16 20:46:00,
2013-02-16 16:01:00,33.6,33.3,29.70,SSW,202,2.7,-999.0,99,-99.99,,,0.40,Acu-Link.com,2013-02-16 21:01:00,
2013-02-16 16:16:00,33.6,33.3,29.70,West,270,2.7,-999.0,99,-99.99,,,0.40,Acu-Link.com,2013-02-16 21:16:00,
2013-02-16 16:31:00,33.4,33.1,29.69,WSW,247,2.2,-999.0,99,-99.99,,,0.41,Acu-Link.com,2013-02-16 21:31:00,
2013-02-16 16:47:00,33.6,33.3,29.69,South,180,2.7,-999.0,99,-99.99,,,0.42,Acu-Link.com,2013-02-16 21:47:00,
2013-02-16 17:02:00,33.6,33.3,29.70,South,180,2.2,-999.0,99,-99.99,,,0.42,Acu-Link.com,2013-02-16 22:02:00,
2013-02-16 17:17:00,33.4,33.1,29.68,SSE,157,2.2,-999.0,99,-99.99,,,0.42,Acu-Link.com,2013-02-16 22:17:00,
2013-02-16 17:33:00,33.3,33.0,29.69,West,270,4.7,-999.0,99,-99.99,,,0.43,Acu-Link.com,2013-02-16 22:33:00,
2013-02-16 17:48:00,33.3,33.0,29.69,South,180,2.7,-999.0,99,-99.99,,,0.43,Acu-Link.com,2013-02-16 22:48:00,
2013-02-16 18:03:00,33.3,33.0,29.70,South,180,2.7,-999.0,99,-99.99,,,0.44,Acu-Link.com,2013-02-16 23:03:00,
2013-02-16 18:18:00,32.9,32.7,29.70,SSW,202,4.2,-999.0,99,-99.99,,,0.44,Acu-Link.com,2013-02-16 23:18:00,
2013-02-16 18:34:00,32.9,32.7,29.71,West,270,1.7,-999.0,99,-99.99,,,0.44,Acu-Link.com,2013-02-16 23:34:00,
2013-02-16 18:49:00,32.9,32.7,29.71,South,180,2.2,-999.0,99,-99.99,,,0.44,Acu-Link.com,2013-02-16 23:49:00,
2013-02-16 19:04:00,32.9,32.7,29.71,SE,135,3.7,-999.0,99,-99.99,,,0.45,Acu-Link.com,2013-02-17 00:04:00,
2013-02-16 19:19:00,33.1,32.8,29.72,SSW,202,2.2,-999.0,99,-99.99,,,0.45,Acu-Link.com,2013-02-17 00:19:00,
2013-02-16 19:35:00,33.1,32.8,29.71,WSW,247,0.0,-999.0,99,-99.99,,,0.45,Acu-Link.com,2013-02-17 00:35:00,
2013-02-16 19:50:00,33.1,32.8,29.71,SSW,202,3.2,-999.0,99,-99.99,,,0.45,Acu-Link.com,2013-02-17 00:50:00,
2013-02-16 20:05:00,33.1,32.8,29.72,SSW,202,2.7,-999.0,99,-99.99,,,0.45,Acu-Link.com,2013-02-17 01:05:00,
2013-02-16 20:21:00,33.1,32.8,29.72,South,180,0.0,-999.0,99,-99.99,,,0.45,Acu-Link.com,2013-02-17 01:21:00,
2013-02-16 20:36:00,32.9,32.7,29.72,South,180,5.3,-999.0,99,-99.99,,,0.45,Acu-Link.com,2013-02-17 01:36:00,
2013-02-16 20:51:00,32.7,32.5,29.72,South,180,2.2,-999.0,99,-99.99,,,0.45,Acu-Link.com,2013-02-17 01:51:00,
2013-02-16 21:06:00,32.5,32.3,29.73,South,180,2.7,-999.0,99,-99.99,,,0.45,Acu-Link.com,2013-02-17 02:06:00,
2013-02-16 21:22:00,32.5,32.3,29.74,WSW,247,3.2,-999.0,99,-99.99,,,0.45,Acu-Link.com,2013-02-17 02:22:00,
2013-02-16 21:37:00,32.5,32.3,29.75,SSW,202,1.7,-999.0,99,-99.99,,,0.45,Acu-Link.com,2013-02-17 02:37:00,
2013-02-16 21:52:00,32.4,32.2,29.75,SSE,157,1.7,-999.0,99,-99.99,,,0.45,Acu-Link.com,2013-02-17 02:52:00,
2013-02-16 22:07:00,32.0,31.8,29.75,SSW,202,4.2,-999.0,99,-99.99,,,0.45,Acu-Link.com,2013-02-17 03:07:00,
2013-02-16 22:23:00,32.0,31.8,29.75,SW,225,2.2,-999.0,99,-99.99,,,0.45,Acu-Link.com,2013-02-17 03:23:00,
2013-02-16 22:38:00,31.6,30.8,29.76,WSW,247,4.7,-999.0,97,-99.99,,,0.45,Acu-Link.com,2013-02-17 03:38:00,
2013-02-16 22:53:00,31.6,29.5,29.76,South,180,3.2,-999.0,92,-99.99,,,0.45,Acu-Link.com,2013-02-17 03:53:00,
2013-02-16 23:09:00,31.5,28.9,29.77,South,180,4.7,-999.0,90,-99.99,,,0.45,Acu-Link.com,2013-02-17 04:09:00,
2013-02-16 23:24:00,31.3,27.3,29.77,South,180,4.7,-999.0,85,-99.99,,,0.45,Acu-Link.com,2013-02-17 04:24:00,
2013-02-16 23:39:00,31.1,26.8,29.78,SW,225,2.7,-999.0,84,-99.99,,,0.45,Acu-Link.com,2013-02-17 04:39:00,
2013-02-16 23:55:00,31.1,26.3,29.79,SE,135,3.2,-999.0,82,-99.99,,,0.45,Acu-Link.com,2013-02-17 04:55:00,